Regional Weather Roundup
Issued by NWS Cleveland, OH

Home | Current Version | Previous Version | Graphics & Text | Print | Product List | Glossary On
Versions: 1 2 3 4 5 6 7 8 9 10 11 12 13 14 15 16 17 18 19 20 21 22 23 24 25 26 27 28 29 30 31 32 33 34 35 36 37 38 39 40 41 42 43 44 45 46 47 48 49 50
000
ASUS41 KCLE 220210
RWRCLE
OHIO REGIONAL WEATHER ROUNDUP
NATIONAL WEATHER SERVICE WILMINGTON, OH
900 PM EST SAT JAN 21 2017

NOTE: "FAIR" INDICATES FEW OR NO CLOUDS BELOW 12,000 FEET WITH NO
SIGNIFICANT WEATHER AND/OR OBSTRUCTIONS TO VISIBILITY.

OHZ001>008-015>018-024>027-034-035-043-044-220300-
   NORTHWEST OHIO

CITY           SKY/WX    TMP DP  RH WIND       PRES   REMARKS
DEFIANCE       FAIR      51  48  89 SE5       29.60S
FINDLAY        FAIR      52  47  83 SE6       29.61S
TOLEDO EXPRESS FAIR      51  51 100 S5        29.61S
TOLEDO EXEC    FAIR      49  48  97 S7        29.63S
LIMA           FAIR      51  49  92 S8        29.62S
$$

OHZ009>014-019>023-028>033-038-089-220300-
   NORTHEAST OHIO

CITY           SKY/WX    TMP DP  RH WIND       PRES   REMARKS
CLE-HOPKINS    LGT RAIN  59  50  72 S12       29.67F
CLE-LAKEFRONT  LGT RAIN  58  51  78 SE12      29.65S
CUY CO. ARPT   CLOUDY    59  52  77 S14       29.67S
LORAIN-ELYRIA  CLOUDY    56  49  77 S10       29.65F
ASHTABULA      CLOUDY    56  49  77 S7        29.68F
AKRON-CANTON   LGT RAIN  55  50  83 S9        29.68S
WOOSTER        LGT RAIN  52  49  89 S6        29.67F
MANSFIELD      CLOUDY    55  50  83 S9        29.66S
YOUNGSTOWN     LGT RAIN  57  49  74 S10       29.69F
$$

OHZ042-051>053-060>062-070>072-077>081-220300-
  SOUTHWEST OHIO

CITY           SKY/WX    TMP DP  RH WIND       PRES   REMARKS
CINC-COVINGTON CLOUDY    57  53  86 S6        29.63S
CINC-LUNKEN    CLOUDY    54  53  97 W3        29.64S
HAMILTON       CLOUDY    56  54  93 E3        29.64S
DAYTON         MOCLDY    55  51  86 S8        29.64S
WRIGHT-PAT AFB MOCLDY    56  56 100 SE5       29.63S
DAYTON GENERAL CLOUDY    56  52  86 S5        29.63S
WILMINGTON     CLOUDY    56  52  86 S6        29.65R
$$

OHZ036-037-039>041-045>050-054>059-063>069-073>076-082>088-220300-
  CENTRAL AND SOUTHEAST OHIO

CITY           SKY/WX    TMP DP  RH WIND       PRES   REMARKS
COLUMBUS       CLOUDY    58  50  75 SE7       29.65S
OSU AIRPORT    CLOUDY    57  52  83 CALM      29.65R
BOLTON FIELD   CLOUDY    55  51  88 S5        29.66R
RICKENBACK AFB   N/A     55  52  90 SE7       29.65R
NEWARK         CLOUDY    52  49  89 CALM      29.66S
MARION         CLOUDY    55  50  83 S9        29.65R
LANCASTER      CLOUDY    58  51  78 SE6       29.66F
ZANESVILLE     CLOUDY    54  50  86 CALM      29.69R
NEW PHILLY     CLOUDY    55  51  86 SE5       29.69F
$$



USA.gov is the U.S. government's official web portal to all federal, state and local government web resources and services.